Regional Weather Roundup
Issued by NWS Newport/Morehead, NC

Current Version | Previous Version | Text Only | Print | Product List | Glossary Off
Versions: 1 2 3 4 5 6 7 8 9 10 11 12 13 14 15 16 17 18 19 20 21 22 23 24 25 26 27 28 29 30 31 32 33 34 35 36 37 38 39 40 41 42 43 44 45 46 47 48 49 50
000 ASUS42 KMHX 041513 RWRMHX WEATHER ROUNDUP FOR EASTERN NORTH CAROLINA NATIONAL WEATHER SERVICE NEWPORT/MOREHEAD CITY NC 1100 AM EDT SAT JUL 04 2015 NOTE: "FAIR" INDICATES FEW OR NO CLOUDS BELOW 12,000 FEET WITH NO SIGNIFICANT WEATHER AND/OR OBSTRUCTIONS TO VISIBILITY NCZ015>017-031-032-045>047-102-103-041600- NORTH COAST CITY SKY/WX TMP DP RH WIND PRES REMARKS EDENTON N/A 82 70 67 W14G21 29.95R ELIZABETH CITY MOSUNNY 82 71 69 W14 29.93S KITTY HAWK SUNNY 84 71 64 W12G18 29.93R MANTEO SUNNY 82 70 67 W13G20 29.95R $$ NCZ045>047-081-094-103-104-041600- CENTRAL COAST CITY SKY/WX TMP DP RH WIND PRES REMARKS FRISCO SUNNY 81 73 76 SW7 29.99R SWANQUARTER N/A 84 N/A N/A W9G17 29.94S $$ NCZ095-097-098-100-101-041600- SOUTHERN COAST CITY SKY/WX TMP DP RH WIND PRES REMARKS BEAUFORT MOSUNNY 85 71 63 SW17G26 30.00S CEDAR ISLAND N/A 86 N/A N/A SW21 30.00S JACKSONVILLE MOSUNNY 83 69 62 SW12 29.99F PINEY ISLAND SUNNY N/A N/A N/A W21G29 29.98S WILMINGTON MOSUNNY 86 69 56 W16 30.02F $$ NCZ011>013-027>030-043-044-078>080-089-090>093-098-041600- COASTAL PLAIN CITY SKY/WX TMP DP RH WIND PRES REMARKS AHOSKIE MOSUNNY N/A N/A N/A CALM 29.94S CLINTON MOSUNNY 82 72 71 SW8 30.00R ELIZABETHTOWN PTSUNNY 80 68 65 SW10G18 30.01S GOLDSBORO SUNNY 84 72 65 W10 29.95F GREENVILLE MOSUNNY 84 72 65 W10G22 29.98S HAVELOCK SUNNY 87 68 52 SW15G24 30.00S KENANSVILLE MOSUNNY 82 69 65 SW6 30.00S KINSTON SUNNY 86 70 58 SW9G20 29.97F NEW BERN SUNNY 86 71 60 SW12G23 29.99S RICHLANDS SUNNY 86 68 54 SW13G18 29.99F ROCKY MOUNT SUNNY 85 70 60 W10G22 29.95F WASHINGTON SUNNY 83 71 67 W13G24 29.97S WHITEVILLE CLOUDY 81 70 68 SW12 30.03R $$ AMZ130-135-150-152-154-156-158-170-250-252-270-ANZ085-086-088-633-658-670-041600- MARINE OBSERVATIONS STATION/POSITION TIME TEMP WIND PRES WAVE SWELL AIR SEA DIR/SP/G HT/PER HT/PER (UTC) (F) (DEG/KT/KT) (MB) (FT/S) (FT/S) CHESAPEAKE LIGHT 1500 76 290/ 12/ 13 1013.3 64 E VA BEACH 1450 76 76 250/ 21/ 25 1012.1 7/ 7 2/14 DUCK 1400 79 65 250/ 23/ 27 N/A 2 E DUCK 1411 74 N/A 2/ 8 OREGON INLET 1400 80 79 240/ 17/ 19 1013.7 13E OREGON INLT 1500 70 N/A 4/ 8 2/14 HATTERAS CG 1400 81 76 220/ 7/ 13 1014.7 DIAMOND BUOY 1450 81 82 240/ 19/ 23 1015.3 6/ 7 5/ 7 CAPE LOOKOUT 1500 82 250/ 18/ 24 1015.8 BEAUFORT LAB 1400 82 79 230/ 8/ 19 1015.3 30 SE NEW RVR IN 1408 81 79 260/ 19/ 25 1016.8 27 SE WRIGHTSVLE 1400 80 260/ 19/ 23 N/A 5 SE WRIGHTSVLE NOT AVBL 225 S CAPE HAT 1450 82 80 230/ 12/ 16 1021.1 6/ 7 5/ 7 41 SE CHARLESTON 1450 81 81 240/ 12/ 14 1018.1 5/ 6 3/ 6 $$

USA.gov is the U.S. government's official web portal to all federal, state and local government web resources and services.